ProjectID,Date,Electric Generation,Electric Utility Import,Facility Electric Load
,YYYY-MM-DD,kW,kW,kW
349,2016-06-12,0.0,,0.0
349,2016-06-13,83.61666666666666,,83.61666666666666
349,2016-06-14,94.18333333333334,,94.18333333333334
349,2016-06-15,88.80833333333334,,88.80833333333334
349,2016-06-16,25.724999999999998,,25.724999999999998
349,2016-06-17,107.14999999999999,,107.14999999999999
349,2016-06-18,104.16666666666667,,104.16666666666667
349,2016-06-19,106.15833333333335,,106.15833333333335
349,2016-06-20,103.91666666666667,,103.91666666666667
349,2016-06-21,95.75,,95.75
349,2016-06-22,98.95833333333333,,98.95833333333333
349,2016-06-23,47.375,,47.375
349,2016-06-24,108.85000000000001,,108.85000000000001
349,2016-06-25,74.59166666666667,,74.59166666666667
349,2016-06-26,0.0,,0.0
349,2016-06-27,0.0,,0.0
349,2016-06-28,0.0,,0.0
349,2016-06-29,0.0,,0.0
349,2016-06-30,0.0,,0.0
349,2016-07-01,0.0,,0.0
349,2016-07-02,0.0,,0.0
349,2016-07-03,0.0,,0.0
349,2016-07-04,0.0,,0.0
349,2016-07-05,0.0,,0.0
349,2016-07-06,0.0,,0.0
349,2016-07-07,0.0,,0.0
349,2016-07-08,0.0,,0.0
349,2016-07-09,0.0,,0.0
349,2016-07-10,0.0,,0.0
349,2016-07-11,0.0,,0.0
349,2016-07-12,0.0,,0.0
349,2016-07-13,0.0,,0.0
349,2016-07-14,0.0,,0.0
349,2016-07-15,0.0,,0.0
349,2016-07-16,0.0,,0.0
349,2016-07-17,0.0,,0.0
349,2016-07-18,0.0,,0.0
349,2016-07-19,0.0,,0.0
349,2016-07-20,14.825000000000001,,14.825000000000001
349,2016-07-21,13.125,,13.125
349,2016-07-22,13.6,,13.6
349,2016-07-23,0.0,,0.0
349,2016-07-24,0.0,,0.0
349,2016-07-25,0.0,,0.0
349,2016-07-26,0.0,,0.0
349,2016-07-27,0.0,,0.0
349,2016-07-28,0.0,,0.0
349,2016-07-29,0.0,,0.0
349,2016-07-30,0.0,,0.0
349,2016-07-31,0.0,,0.0
349,2016-08-01,0.0,,0.0
349,2016-08-02,0.0,,0.0
349,2016-08-03,0.0,,0.0
349,2016-08-04,0.0,,0.0
349,2016-08-05,0.0,,0.0
349,2016-08-06,0.0,,0.0
349,2016-08-07,0.0,,0.0
349,2016-08-08,0.0,,0.0
349,2016-08-09,0.0,,0.0
349,2016-08-10,0.0,,0.0
349,2016-08-11,0.0,,0.0
349,2016-08-12,0.0,,0.0
349,2016-08-13,0.0,,0.0
349,2016-08-14,0.0,,0.0
349,2016-08-15,0.0,,0.0
349,2016-08-16,0.0,,0.0
349,2016-08-17,0.0,,0.0
349,2016-08-18,0.0,,0.0
349,2016-08-19,14.450000000000001,,14.450000000000001
349,2016-08-20,27.3275,,27.3275
349,2016-08-21,20.580000000000002,,20.580000000000002
349,2016-08-22,29.855,,29.855
349,2016-08-23,28.255,,28.255
349,2016-08-24,27.53,,27.53
349,2016-08-25,20.22,,20.22
349,2016-08-26,23.0925,,23.0925
349,2016-08-27,26.13,,26.13
349,2016-08-28,26.4425,,26.4425
349,2016-08-29,26.2225,,26.2225
349,2016-08-30,26.9175,,26.9175
349,2016-08-31,20.01,,20.01
349,2016-09-01,11.17,,11.17
349,2016-09-02,23.825,,23.825
349,2016-09-03,17.535,,17.535
349,2016-09-04,27.060000000000002,,27.060000000000002
349,2016-09-05,17.48,,17.48
349,2016-09-06,10.5425,,10.5425
349,2016-09-07,14.6825,,14.6825
349,2016-09-08,21.3125,,21.3125
349,2016-09-09,12.8975,,12.8975
349,2016-09-10,19.4725,,19.4725
349,2016-09-11,21.599999999999998,,21.599999999999998
349,2016-09-12,24.73,,24.73
349,2016-09-13,21.9475,,21.9475
349,2016-09-14,23.52,,23.52
349,2016-09-15,25.727500000000003,,25.727500000000003
349,2016-09-16,24.045,,24.045
349,2016-09-17,24.14,,24.14
349,2016-09-18,12.6075,,12.6075
349,2016-09-19,3.9600000000000004,,3.9600000000000004
349,2016-09-20,17.5475,,17.5475
349,2016-09-21,18.895,,18.895
349,2016-09-22,23.507499999999997,,23.507499999999997
349,2016-09-23,22.145,,22.145
349,2016-09-24,17.7525,,17.7525
349,2016-09-25,24.3075,,24.3075
349,2016-09-26,18.035,,18.035
349,2016-09-27,17.7,,17.7
349,2016-09-28,8.39,,8.39
349,2016-09-29,4.095,,4.095
349,2016-09-30,4.76,,4.76
349,2016-10-01,3.8375,,3.8375
349,2016-10-02,6.670000000000001,,6.670000000000001
349,2016-10-03,13.92,,13.92
349,2016-10-04,11.0225,,11.0225
349,2016-10-05,21.537499999999998,,21.537499999999998
349,2016-10-06,20.5525,,20.5525
349,2016-10-07,20.7075,,20.7075
349,2016-10-08,5.205,,5.205
349,2016-10-09,2.8775,,2.8775
349,2016-10-10,21.67,,21.67
349,2016-10-11,14.3025,,14.3025
349,2016-10-12,10.9,,10.9
349,2016-10-13,8.1,,8.1
349,2016-10-14,16.01,,16.01
349,2016-10-15,16.16,,16.16
349,2016-10-16,11.9225,,11.9225
349,2016-10-17,14.469999999999999,,14.469999999999999
349,2016-10-18,11.7425,,11.7425
349,2016-10-19,0.0,,0.0
349,2016-10-20,0.0,,0.0
349,2016-10-21,0.0,,0.0
349,2016-10-22,0.0,,0.0
349,2016-10-23,0.0,,0.0
349,2016-10-24,0.0,,0.0
349,2016-10-25,0.0,,0.0
349,2016-10-26,15.565,,15.565
349,2016-10-27,1.5650000000000002,,1.5650000000000002
349,2016-10-28,12.01,,12.01
349,2016-10-29,14.0725,,14.0725
349,2016-10-30,13.6075,,13.6075
349,2016-10-31,16.2175,,16.2175
349,2016-11-01,14.805,,14.805
349,2016-11-02,14.24,,14.24
349,2016-11-03,5.9375,,5.9375
349,2016-11-04,15.145000000000001,,15.145000000000001
349,2016-11-05,14.222499999999998,,14.222499999999998
349,2016-11-06,13.717500000000001,,13.717500000000001
349,2016-11-07,14.6475,,14.6475
349,2016-11-08,13.565,,13.565
349,2016-11-09,2.155,,2.155
349,2016-11-10,13.469999999999999,,13.469999999999999
349,2016-11-11,13.137500000000001,,13.137500000000001
349,2016-11-12,13.85,,13.85
349,2016-11-13,13.6325,,13.6325
349,2016-11-14,11.7025,,11.7025
349,2016-11-15,2.3850000000000002,,2.3850000000000002
349,2016-11-16,12.1325,,12.1325
349,2016-11-17,11.94,,11.94
349,2016-11-18,11.737499999999999,,11.737499999999999
349,2016-11-19,11.342500000000001,,11.342500000000001
349,2016-11-20,5.1499999999999995,,5.1499999999999995
349,2016-11-21,4.1325,,4.1325
349,2016-11-22,9.950000000000001,,9.950000000000001
349,2016-11-23,12.0725,,12.0725
349,2016-11-24,3.7899999999999996,,3.7899999999999996
349,2016-11-25,5.46,,5.46
349,2016-11-26,5.6325,,5.6325
349,2016-11-27,8.82,,8.82
349,2016-11-28,10.32,,10.32
349,2016-11-29,0.5325,,0.5325
349,2016-11-30,1.5350000000000001,,1.5350000000000001
349,2016-12-01,8.505,,8.505
349,2016-12-02,9.450000000000001,,9.450000000000001
349,2016-12-03,9.1925,,9.1925
349,2016-12-04,9.72,,9.72
349,2016-12-05,8.5,,8.5
349,2016-12-06,4.7924999999999995,,4.7924999999999995
349,2016-12-07,3.095,,3.095
349,2016-12-08,4.97,,4.97
349,2016-12-09,8.055,,8.055
349,2016-12-10,7.715,,7.715
349,2016-12-11,4.985,,4.985
349,2016-12-12,2.85,,2.85
349,2016-12-13,7.825,,7.825
349,2016-12-14,9.362499999999999,,9.362499999999999
349,2016-12-15,7.43,,7.43
349,2016-12-16,9.535,,9.535
349,2016-12-17,0.11,,0.11
349,2016-12-18,1.865,,1.865
349,2016-12-19,9.987499999999999,,9.987499999999999
349,2016-12-20,9.35,,9.35
349,2016-12-21,5.8975,,5.8975
349,2016-12-22,6.422499999999999,,6.422499999999999
349,2016-12-23,9.035,,9.035
349,2016-12-24,1.7675,,1.7675
349,2016-12-25,9.2425,,9.2425
349,2016-12-26,2.0975,,2.0975
349,2016-12-27,6.0225,,6.0225
349,2016-12-28,4.01,,4.01
349,2016-12-29,0.8275,,0.8275
349,2016-12-30,5.1175,,5.1175
349,2016-12-31,8.4275,,8.4275
349,2017-01-01,9.522499999999999,,9.522499999999999
349,2017-01-02,1.665,,1.665
349,2017-01-03,1.22,,1.22
349,2017-01-04,5.6000000000000005,,5.6000000000000005
349,2017-01-05,8.112499999999999,,8.112499999999999
349,2017-01-06,1.8775000000000002,,1.8775000000000002
349,2017-01-07,0.1225,,0.1225
349,2017-01-08,0.1275,,0.1275
349,2017-01-09,0.1925,,0.1925
349,2017-01-10,0.3625,,0.3625
349,2017-01-11,7.1275,,7.1275
349,2017-01-12,8.5875,,8.5875
349,2017-01-13,10.8175,,10.8175
349,2017-01-14,5.4325,,5.4325
349,2017-01-15,6.239999999999999,,6.239999999999999
349,2017-01-16,11.6175,,11.6175
349,2017-01-17,1.3775000000000002,,1.3775000000000002
349,2017-01-18,1.085,,1.085
349,2017-01-19,0.0,,0.0
349,2017-01-20,0.0,,0.0
349,2017-01-21,0.0,,0.0
349,2017-01-22,0.0,,0.0
349,2017-01-23,1.4425,,1.4425
349,2017-01-24,1.63,,1.63
349,2017-01-25,11.6475,,11.6475
349,2017-01-26,8.28,,8.28
349,2017-01-27,7.63,,7.63
349,2017-01-28,5.315,,5.315
349,2017-01-29,12.5475,,12.5475
349,2017-01-30,10.51,,10.51
349,2017-01-31,1.345,,1.345
349,2017-02-01,7.5325,,7.5325
349,2017-02-02,11.4375,,11.4375
349,2017-02-03,11.387500000000001,,11.387500000000001
349,2017-02-04,16.28,,16.28
349,2017-02-05,7.56,,7.56
349,2017-02-06,15.475,,15.475
349,2017-02-07,2.46,,2.46
349,2017-02-08,13.24,,13.24
349,2017-02-09,0.06,,0.06
349,2017-02-10,1.08,,1.08
349,2017-02-11,1.02,,1.02
349,2017-02-12,0.265,,0.265
349,2017-02-13,3.4299999999999997,,3.4299999999999997
349,2017-02-14,10.907499999999999,,10.907499999999999
349,2017-02-15,10.705,,10.705
349,2017-02-16,17.235,,17.235
349,2017-02-17,19.465,,19.465
349,2017-02-18,17.6175,,17.6175
349,2017-02-19,14.655000000000001,,14.655000000000001
349,2017-02-20,19.29,,19.29
349,2017-02-21,15.530000000000001,,15.530000000000001
349,2017-02-22,10.9375,,10.9375
349,2017-02-23,11.7475,,11.7475
349,2017-02-24,15.795,,15.795
349,2017-02-25,19.025000000000002,,19.025000000000002
349,2017-02-26,19.5625,,19.5625
349,2017-02-27,15.6275,,15.6275
349,2017-02-28,16.2825,,16.2825
349,2017-03-01,6.1525,,6.1525
349,2017-03-02,22.995,,22.995
349,2017-03-03,16.665,,16.665
349,2017-03-04,16.9925,,16.9925
349,2017-03-05,24.5975,,24.5975
349,2017-03-06,21.625,,21.625
349,2017-03-07,6.015000000000001,,6.015000000000001
349,2017-03-08,20.555,,20.555
349,2017-03-09,23.8,,23.8
349,2017-03-10,0.29,,0.29
349,2017-03-11,1.6825,,1.6825
349,2017-03-12,2.29,,2.29
349,2017-03-13,15.57,,15.57
349,2017-03-14,0.345,,0.345
349,2017-03-15,1.0775,,1.0775
349,2017-03-16,9.975,,9.975
349,2017-03-17,20.535,,20.535
349,2017-03-18,4.2875000000000005,,4.2875000000000005
349,2017-03-19,27.435000000000002,,27.435000000000002
349,2017-03-20,26.2225,,26.2225
349,2017-03-21,23.087500000000002,,23.087500000000002
349,2017-03-22,29.0425,,29.0425
349,2017-03-23,28.4875,,28.4875
349,2017-03-24,12.3975,,12.3975
349,2017-03-25,7.8475,,7.8475
349,2017-03-26,5.405,,5.405
349,2017-03-27,9.2675,,9.2675
349,2017-03-28,3.2575000000000003,,3.2575000000000003
349,2017-03-29,27.7775,,27.7775
349,2017-03-30,19.565,,19.565
349,2017-03-31,2.125,,2.125
349,2017-04-01,11.7525,,11.7525
349,2017-04-02,28.83,,28.83
349,2017-04-03,23.13,,23.13
349,2017-04-04,7.202500000000001,,7.202500000000001
349,2017-04-05,20.07,,20.07
349,2017-04-06,2.6725,,2.6725
349,2017-04-07,10.3175,,10.3175
349,2017-04-08,30.497500000000002,,30.497500000000002
349,2017-04-09,29.560000000000002,,29.560000000000002
349,2017-04-10,28.037499999999998,,28.037499999999998
349,2017-04-11,26.5475,,26.5475
349,2017-04-12,15.4975,,15.4975
349,2017-04-13,26.61,,26.61
349,2017-04-14,24.775000000000002,,24.775000000000002
349,2017-04-15,15.652500000000002,,15.652500000000002
349,2017-04-16,24.5525,,24.5525
349,2017-04-17,17.2725,,17.2725
349,2017-04-18,31.0725,,31.0725
349,2017-04-19,18.5675,,18.5675
349,2017-04-20,18.732499999999998,,18.732499999999998
349,2017-04-21,9.4625,,9.4625
349,2017-04-22,8.135,,8.135
349,2017-04-23,28.365,,28.365
349,2017-04-24,12.405000000000001,,12.405000000000001
349,2017-04-25,5.1674999999999995,,5.1674999999999995
349,2017-04-26,5.745,,5.745
349,2017-04-27,20.57,,20.57
349,2017-04-28,29.412499999999998,,29.412499999999998
349,2017-04-29,24.895,,24.895
349,2017-04-30,10.6625,,10.6625
349,2017-05-01,20.785,,20.785
349,2017-05-02,25.352500000000003,,25.352500000000003
349,2017-05-03,24.810000000000002,,24.810000000000002
349,2017-05-04,30.4675,,30.4675
349,2017-05-05,3.81,,3.81
349,2017-05-06,16.8875,,16.8875
349,2017-05-07,13.43,,13.43
349,2017-05-08,25.7375,,25.7375
349,2017-05-09,27.3925,,27.3925
349,2017-05-10,23.242500000000003,,23.242500000000003
349,2017-05-11,20.73,,20.73
349,2017-05-12,28.962500000000002,,28.962500000000002
349,2017-05-13,4.2825,,4.2825
349,2017-05-14,26.900000000000002,,26.900000000000002
349,2017-05-15,29.712500000000002,,29.712500000000002
349,2017-05-16,28.6125,,28.6125
349,2017-05-17,30.4575,,30.4575
349,2017-05-18,29.395,,29.395
349,2017-05-19,28.72,,28.72
349,2017-05-20,10.9125,,10.9125
349,2017-05-21,33.405,,33.405
349,2017-05-22,3.875,,3.875
349,2017-05-23,17.412499999999998,,17.412499999999998
349,2017-05-24,20.537499999999998,,20.537499999999998
349,2017-05-25,5.3125,,5.3125
349,2017-05-26,18.55,,18.55
349,2017-05-27,15.292499999999999,,15.292499999999999
349,2017-05-28,26.02,,26.02
349,2017-05-29,8.4275,,8.4275
349,2017-05-30,8.045,,8.045
349,2017-05-31,25.459999999999997,,25.459999999999997
349,2017-06-01,28.13,,28.13
349,2017-06-02,30.5925,,30.5925
349,2017-06-03,25.712500000000002,,25.712500000000002
349,2017-06-04,13.3225,,13.3225
349,2017-06-05,13.555,,13.555
349,2017-06-06,6.06,,6.06
349,2017-06-07,23.1825,,23.1825
349,2017-06-08,22.115,,22.115
349,2017-06-09,29.849999999999998,,29.849999999999998
349,2017-06-10,29.435000000000002,,29.435000000000002
349,2017-06-11,30.334999999999997,,30.334999999999997
349,2017-06-12,29.8575,,29.8575
349,2017-06-13,26.2625,,26.2625
349,2017-06-14,24.75,,24.75
349,2017-06-15,31.115,,31.115
349,2017-06-16,7.495,,7.495
349,2017-06-17,13.902500000000002,,13.902500000000002
349,2017-06-18,19.7375,,19.7375
349,2017-06-19,21.7825,,21.7825
349,2017-06-20,33.315,,33.315
349,2017-06-21,26.7375,,26.7375
349,2017-06-22,32.055,,32.055
349,2017-06-23,15.005,,15.005
349,2017-06-24,29.319999999999997,,29.319999999999997
349,2017-06-25,28.865,,28.865
349,2017-06-26,31.5825,,31.5825
349,2017-06-27,25.6825,,25.6825
349,2017-06-28,29.025000000000002,,29.025000000000002
349,2017-06-29,28.995,,28.995
349,2017-06-30,30.1775,,30.1775
349,2017-07-01,18.175,,18.175
349,2017-07-02,30.502499999999998,,30.502499999999998
349,2017-07-03,24.845,,24.845
349,2017-07-04,24.965,,24.965
349,2017-07-05,29.33,,29.33
349,2017-07-06,17.5925,,17.5925
349,2017-07-07,17.3175,,17.3175
349,2017-07-08,27.525000000000002,,27.525000000000002
349,2017-07-09,30.22,,30.22
349,2017-07-10,25.455,,25.455
349,2017-07-11,20.3775,,20.3775
349,2017-07-12,24.834999999999997,,24.834999999999997
349,2017-07-13,18.2225,,18.2225
349,2017-07-14,5.1450000000000005,,5.1450000000000005
349,2017-07-15,23.235,,23.235
349,2017-07-16,29.4275,,29.4275
349,2017-07-17,28.497500000000002,,28.497500000000002
349,2017-07-18,28.7025,,28.7025
349,2017-07-19,27.7225,,27.7225
349,2017-07-20,24.9675,,24.9675
349,2017-07-21,27.627499999999998,,27.627499999999998
349,2017-07-22,23.89,,23.89
349,2017-07-23,17.857499999999998,,17.857499999999998
349,2017-07-24,12.799999999999999,,12.799999999999999
349,2017-07-25,14.354999999999999,,14.354999999999999
349,2017-07-26,32.074999999999996,,32.074999999999996
349,2017-07-27,11.88,,11.88
349,2017-07-28,23.4025,,23.4025
349,2017-07-29,15.1825,,15.1825
349,2017-07-30,31.372500000000002,,31.372500000000002
349,2017-07-31,25.955,,25.955
349,2017-08-01,24.5625,,24.5625
349,2017-08-02,11.185,,11.185
349,2017-08-03,27.5625,,27.5625
349,2017-08-04,27.787499999999998,,27.787499999999998
349,2017-08-05,20.0225,,20.0225
349,2017-08-06,20.46,,20.46
349,2017-08-07,2.9075,,2.9075
349,2017-08-08,18.375,,18.375
349,2017-08-09,25.9575,,25.9575
349,2017-08-10,27.6925,,27.6925
349,2017-08-11,24.2075,,24.2075
349,2017-08-12,11.8225,,11.8225
349,2017-08-13,28.08,,28.08
349,2017-08-14,15.532499999999999,,15.532499999999999
349,2017-08-15,6.047499999999999,,6.047499999999999
349,2017-08-16,26.0275,,26.0275
349,2017-08-17,28.22,,28.22
349,2017-08-18,8.012500000000001,,8.012500000000001
349,2017-08-19,25.0925,,25.0925
349,2017-08-20,27.560000000000002,,27.560000000000002
349,2017-08-21,20.82,,20.82
349,2017-08-22,22.444999999999997,,22.444999999999997
349,2017-08-23,26.492500000000003,,26.492500000000003
349,2017-08-24,24.135,,24.135
349,2017-08-25,20.05,,20.05
349,2017-08-26,27.689999999999998,,27.689999999999998
349,2017-08-27,23.584999999999997,,23.584999999999997
349,2017-08-28,22.5325,,22.5325
349,2017-08-29,3.6799999999999997,,3.6799999999999997
349,2017-08-30,27.314999999999998,,27.314999999999998
349,2017-08-31,21.537499999999998,,21.537499999999998
349,2017-09-01,27.16,,27.16
349,2017-09-02,12.092500000000001,,12.092500000000001
349,2017-09-03,9.63,,9.63
349,2017-09-04,25.3875,,25.3875
349,2017-09-05,24.6425,,24.6425
349,2017-09-06,4.7475,,4.7475
349,2017-09-07,22.325,,22.325
349,2017-09-08,19.3825,,19.3825
349,2017-09-09,25.5925,,25.5925
349,2017-09-10,25.015,,25.015
349,2017-09-11,24.175,,24.175
349,2017-09-12,21.2425,,21.2425
349,2017-09-13,16.365,,16.365
349,2017-09-14,15.347499999999998,,15.347499999999998
349,2017-09-15,19.5975,,19.5975
349,2017-09-16,21.540000000000003,,21.540000000000003
349,2017-09-17,17.8825,,17.8825
349,2017-09-18,7.2749999999999995,,7.2749999999999995
349,2017-09-19,11.902500000000002,,11.902500000000002
349,2017-09-20,14.31,,14.31
349,2017-09-21,15.835,,15.835
349,2017-09-22,22.8075,,22.8075
349,2017-09-23,22.992500000000003,,22.992500000000003
349,2017-09-24,21.349999999999998,,21.349999999999998
349,2017-09-25,20.615,,20.615
349,2017-09-26,17.6225,,17.6225
349,2017-09-27,18.16,,18.16
349,2017-09-28,22.63,,22.63
349,2017-09-29,16.2475,,16.2475
349,2017-09-30,13.034999999999998,,13.034999999999998
349,2017-10-01,21.814999999999998,,21.814999999999998
349,2017-10-02,21.6575,,21.6575
349,2017-10-03,20.93,,20.93
349,2017-10-04,20.8325,,20.8325
349,2017-10-05,15.3575,,15.3575
349,2017-10-06,16.89,,16.89
349,2017-10-07,14.604999999999999,,14.604999999999999
349,2017-10-08,4.81,,4.81
349,2017-10-09,3.1875,,3.1875
349,2017-10-10,18.892500000000002,,18.892500000000002
349,2017-10-11,10.52,,10.52
349,2017-10-12,10.7025,,10.7025
349,2017-10-13,9.1,,9.1
349,2017-10-14,10.17,,10.17
349,2017-10-15,7.047499999999999,,7.047499999999999
349,2017-10-16,9.0175,,9.0175
349,2017-10-17,19.105,,19.105
349,2017-10-18,17.705000000000002,,17.705000000000002
349,2017-10-19,18.080000000000002,,18.080000000000002
349,2017-10-20,17.7425,,17.7425
349,2017-10-21,16.150000000000002,,16.150000000000002
349,2017-10-22,16.6925,,16.6925
349,2017-10-23,11.92,,11.92
349,2017-10-24,6.4775,,6.4775
349,2017-10-25,6.75,,6.75
349,2017-10-26,5.8525,,5.8525
349,2017-10-27,16.169999999999998,,16.169999999999998
349,2017-10-28,15.967500000000001,,15.967500000000001
349,2017-10-29,1.365,,1.365
349,2017-10-30,13.950000000000001,,13.950000000000001
349,2017-10-31,15.4325,,15.4325
349,2017-11-01,5.68,,5.68
349,2017-11-02,12.3175,,12.3175
349,2017-11-03,11.1775,,11.1775
349,2017-11-04,13.075000000000001,,13.075000000000001
349,2017-11-05,2.9825,,2.9825
349,2017-11-06,3.215,,3.215
349,2017-11-07,4.0225,,4.0225
349,2017-11-08,12.887500000000001,,12.887500000000001
349,2017-11-09,9.8125,,9.8125
349,2017-11-10,11.935,,11.935
349,2017-11-11,14.155000000000001,,14.155000000000001
349,2017-11-12,11.722499999999998,,11.722499999999998
349,2017-11-13,4.0475,,4.0475
349,2017-11-14,10.3425,,10.3425
349,2017-11-15,12.2125,,12.2125
349,2017-11-16,7.8,,7.8
349,2017-11-17,12.9925,,12.9925
349,2017-11-18,3.6325000000000003,,3.6325000000000003
349,2017-11-19,8.545,,8.545
349,2017-11-20,10.995,,10.995
349,2017-11-21,11.042499999999999,,11.042499999999999
349,2017-11-22,4.9275,,4.9275
349,2017-11-23,11.717500000000001,,11.717500000000001
349,2017-11-24,11.030000000000001,,11.030000000000001
349,2017-11-25,11.2325,,11.2325
349,2017-11-26,9.7775,,9.7775
349,2017-11-27,10.2825,,10.2825
349,2017-11-28,10.3325,,10.3325
349,2017-11-29,10.165000000000001,,10.165000000000001
349,2017-11-30,7.31,,7.31
349,2017-12-01,9.875,,9.875
349,2017-12-02,9.0025,,9.0025
349,2017-12-03,2.435,,2.435
349,2017-12-04,8.67,,8.67
349,2017-12-05,3.0375,,3.0375
349,2017-12-06,6.875,,6.875
349,2017-12-07,9.76,,9.76
349,2017-12-08,4.8500000000000005,,4.8500000000000005
349,2017-12-09,0.1425,,0.1425
349,2017-12-10,0.075,,0.075
349,2017-12-11,0.375,,0.375
349,2017-12-12,3.3874999999999997,,3.3874999999999997
349,2017-12-13,8.647499999999999,,8.647499999999999
349,2017-12-14,0.9275000000000001,,0.9275000000000001
349,2017-12-15,1.105,,1.105
349,2017-12-16,0.515,,0.515
349,2017-12-17,5.2124999999999995,,5.2124999999999995
349,2017-12-18,6.52,,6.52
349,2017-12-19,7.815,,7.815
349,2017-12-20,6.2175,,6.2175
349,2017-12-21,8.7775,,8.7775
349,2017-12-22,1.7675,,1.7675
349,2017-12-23,0.5,,0.5
349,2017-12-24,5.827500000000001,,5.827500000000001
349,2017-12-25,8.225,,8.225
349,2017-12-26,9.295,,9.295
349,2017-12-27,9.61,,9.61
349,2017-12-28,9.93,,9.93
349,2017-12-29,8.7175,,8.7175
349,2017-12-30,0.5675,,0.5675
349,2017-12-31,1.8275,,1.8275
349,2018-01-01,3.69,,3.69
349,2018-01-02,6.327500000000001,,6.327500000000001
349,2018-01-03,8.8325,,8.8325
349,2018-01-04,0.3175,,0.3175
349,2018-01-05,4.7,,4.7
349,2018-01-06,5.605,,5.605
349,2018-01-07,6.3,,6.3
349,2018-01-08,3.5124999999999997,,3.5124999999999997
349,2018-01-09,9.23,,9.23
349,2018-01-10,10.265,,10.265
349,2018-01-11,5.5275,,5.5275
349,2018-01-12,1.5775,,1.5775
349,2018-01-13,10.2025,,10.2025
349,2018-01-14,12.0,,12.0
349,2018-01-15,11.735,,11.735
349,2018-01-16,4.4925,,4.4925
349,2018-01-17,0.5525,,0.5525
349,2018-01-18,5.4375,,5.4375
349,2018-01-19,7.965,,7.965
349,2018-01-20,12.96,,12.96
349,2018-01-21,12.200000000000001,,12.200000000000001
349,2018-01-22,6.359999999999999,,6.359999999999999
349,2018-01-23,5.075,,5.075
349,2018-01-24,12.745,,12.745
349,2018-01-25,13.8525,,13.8525
349,2018-01-26,13.075000000000001,,13.075000000000001
349,2018-01-27,10.674999999999999,,10.674999999999999
349,2018-01-28,2.5325,,2.5325
349,2018-01-29,7.59,,7.59
349,2018-01-30,1.9275,,1.9275
349,2018-01-31,14.645000000000001,,14.645000000000001
349,2018-02-01,7.175,,7.175
349,2018-02-02,13.635,,13.635
349,2018-02-03,14.8375,,14.8375
349,2018-02-04,5.9675,,5.9675
349,2018-02-05,16.669999999999998,,16.669999999999998
349,2018-02-06,6.2525,,6.2525
349,2018-02-07,0.725,,0.725
349,2018-02-08,16.22,,16.22
349,2018-02-09,9.475,,9.475
349,2018-02-10,4.8,,4.8
349,2018-02-11,2.0075,,2.0075
349,2018-02-12,7.9575,,7.9575
349,2018-02-13,17.0825,,17.0825
349,2018-02-14,15.1725,,15.1725
349,2018-02-15,6.952500000000001,,6.952500000000001
349,2018-02-16,4.7299999999999995,,4.7299999999999995
349,2018-02-17,11.907499999999999,,11.907499999999999
349,2018-02-18,1.5274999999999999,,1.5274999999999999
349,2018-02-19,6.545000000000001,,6.545000000000001
349,2018-02-20,12.844999999999999,,12.844999999999999
349,2018-02-21,16.525000000000002,,16.525000000000002
349,2018-02-22,1.7175,,1.7175
349,2018-02-23,2.715,,2.715
349,2018-02-24,5.175,,5.175
349,2018-02-25,2.1774999999999998,,2.1774999999999998
349,2018-02-26,7.95,,7.95
349,2018-02-27,20.575,,20.575
349,2018-02-28,20.315,,20.315
349,2018-03-01,9.53,,9.53
349,2018-03-02,1.3625,,1.3625
349,2018-03-03,15.9125,,15.9125
349,2018-03-04,11.635,,11.635
349,2018-03-05,14.987499999999999,,14.987499999999999
349,2018-03-06,22.7675,,22.7675
349,2018-03-07,1.51,,1.51
349,2018-03-08,0.4975,,0.4975
349,2018-03-09,2.3275,,2.3275
349,2018-03-10,6.8999999999999995,,6.8999999999999995
349,2018-03-11,24.34,,24.34
349,2018-03-12,10.7575,,10.7575
349,2018-03-13,10.3825,,10.3825
349,2018-03-14,17.892500000000002,,17.892500000000002
349,2018-03-15,20.9525,,20.9525
349,2018-03-16,20.3525,,20.3525
349,2018-03-17,23.1775,,23.1775
349,2018-03-18,19.8625,,19.8625
349,2018-03-19,25.97,,25.97
349,2018-03-20,5.6025,,5.6025
349,2018-03-21,0.085,,0.085
349,2018-03-22,0.4025,,0.4025
349,2018-03-23,14.11,,14.11
349,2018-03-24,27.915000000000003,,27.915000000000003
349,2018-03-25,14.1825,,14.1825
349,2018-03-26,28.3425,,28.3425
349,2018-03-27,14.950000000000001,,14.950000000000001
349,2018-03-28,10.8575,,10.8575
349,2018-03-29,6.34,,6.34
349,2018-03-30,10.245,,10.245
349,2018-03-31,28.92,,28.92
349,2018-04-01,15.469999999999999,,15.469999999999999
349,2018-04-02,0.73,,0.73
349,2018-04-03,2.225,,2.225
349,2018-04-04,10.51,,10.51
349,2018-04-05,25.247500000000002,,25.247500000000002
349,2018-04-06,15.38,,15.38